This is the latest recevied weather packets stored in our database for station/object SQ9RHX-13. If no packets are shown the sender has not sent any weather packets the latest 1 day(s).
| Time | Temp. | Humidity | Pressure | Rain* | Wind** | Luminosity | Snow |
|---|---|---|---|---|---|---|---|
| 1778003404 | 20.56° C | 62% | 1009.2 hPa | 0 mm | 2.24 m/s, 9° | 6 W/m² | - |
| 1778003103 | 21.11° C | 62% | 1009 hPa | 0 mm | 1.34 m/s, 335° | 9 W/m² | - |
| 1778002803 | 21.11° C | 62% | 1009 hPa | 0 mm | 0.45 m/s, 17° | 13 W/m² | - |
| 1778002504 | 21.11° C | 61% | 1008.9 hPa | 0 mm | 1.79 m/s, 24° | 17 W/m² | - |
| 1778002204 | 21.67° C | 60% | 1009 hPa | 0 mm | 1.34 m/s, 336° | 19 W/m² | - |
| 1778001904 | 21.67° C | 60% | 1009 hPa | 0 mm | 1.34 m/s, 359° | 22 W/m² | - |
| 1778001604 | 21.67° C | 59% | 1009.1 hPa | 0 mm | 2.24 m/s, 25° | 25 W/m² | - |
| 1778001304 | 22.22° C | 59% | 1009 hPa | 0 mm | 1.34 m/s, 33° | 27 W/m² | - |
| 1778001003 | 22.22° C | 58% | 1008.9 hPa | 0 mm | 2.24 m/s, 337° | 30 W/m² | - |
| 1778000705 | 22.78° C | 57% | 1009 hPa | 0 mm | 2.68 m/s, 19° | 33 W/m² | - |
| 1778000404 | 22.78° C | 56% | 1008.9 hPa | 0 mm | 1.34 m/s, 333° | 35 W/m² | - |
| 1778000104 | 23.33° C | 55% | 1008.9 hPa | 0 mm | 2.68 m/s, 341° | 38 W/m² | - |
| 1777999803 | 23.89° C | 53% | 1009 hPa | 0 mm | 1.34 m/s, 333° | 48 W/m² | - |
| 1777999502 | 25.56° C | 47% | 1008.8 hPa | 0 mm | 1.34 m/s, 11° | 62 W/m² | - |
| 1777999203 | 25.56° C | 36% | 1008.7 hPa | 0 mm | 0.45 m/s, 353° | 67 W/m² | - |
| 1777998902 | 25.56° C | 36% | 1008.5 hPa | 0 mm | 0.45 m/s, 44° | 78 W/m² | - |
| 1777998604 | 25.56° C | 36% | 1008.6 hPa | 0 mm | 0.45 m/s, 34° | 82 W/m² | - |
| 1777998302 | 25.56° C | 36% | 1008.7 hPa | 0 mm | 1.34 m/s, 39° | 87 W/m² | - |
| 1777998003 | 25.56° C | 37% | 1008.6 hPa | 0 mm | 0 m/s | 78 W/m² | - |
| 1777997705 | 26.11° C | 35% | 1008.7 hPa | 0 mm | 1.34 m/s, 347° | 85 W/m² | - |
| 1777997402 | 26.11° C | 34% | 1008.8 hPa | 0 mm | 0.89 m/s, 66° | 98 W/m² | - |
| 1777997104 | 26.67° C | 33% | 1008.7 hPa | 0 mm | 0.89 m/s, 339° | 107 W/m² | - |
| 1777996802 | 26.67° C | 33% | 1008.8 hPa | 0 mm | 0 m/s | 115 W/m² | - |
| 1777996502 | 27.22° C | 32% | 1008.8 hPa | 0 mm | 0.45 m/s, 40° | 113 W/m² | - |
| 1777996203 | 27.22° C | 32% | 1009 hPa | 0 mm | 0.45 m/s, 15° | 129 W/m² | - |
* Rain latest hour (hover to see other rain measurements)
** Current wind speed in m/s (hover to see current wind gust speed)